Location: Chanteloup
(48.8560°N, 2.7390°E)
Time: 23:18:24
(UTC+00:00)

Cosmos 2322 Rocket - Pass Details

Date: 07 June 2022
Orbit: 833 x 851 km, 71.0° (Epoch: 06 July)

Event Time Altitude Azimuth Distance (km) Brightness Sun altitude
Rises 20:57:17 0° 233° (SW) 3,370 5.4 -8.8°
Reaches altitude 10° 20:59:54 10° 241° (WSW) 2,440 4.7 -9.1°
Maximum altitude 21:05:04 38° 309° (NW) 1,265 3.9 -9.6°
Drops below altitude 10° 21:10:17 10° 17° (NNE) 2,457 5.2 -10.2°
Sets 21:12:56 0° 26° (NNE) 3,396 5.8 -10.4°
